Seward, AK

12:59 AM AKDT on September 30, 2016 (GMT -0800)
Seward

Weather History for PAWD - October, 2011

Change the Weather History Date:

Wednesday, October 5, 2011

  Actual Average Record
Temperature  
Mean Temperature 38 °F -  
Max Temperature 46 °F 49 °F 59 °F (1998)
Min Temperature 30 °F 38 °F 26 °F (1958)
Degree Days  
Heating Degree Days 27    
Moisture  
Dew Point 35 °F    
Average Humidity 81    
Maximum Humidity 93    
Minimum Humidity 70    
Precipitation  
Precipitation 0.42 in - - ()
Sea Level Pressure  
Sea Level Pressure 29.49 in    
Wind  
Wind Speed 7 mph (West)    
Max Wind Speed 16 mph    
Max Gust Speed 31 mph    
Visibility 8 miles    
Events Rain    
Averages and records for this station are not official NWS values.
T = Trace of Precipitation, MM = Missing Value Source: NWS Daily Summary

Daily Weather History Graph

Daily Weather History Graph

Search for Another Location

Airport or City:

Trip Planner

Search our weather history database for the weather conditions in past years. The results will help you decide how hot, cold, wet, or windy it might be!

Date:

Astronomy

Oct. 05, 2011 Rise Set
Actual Time 8:12 AM AKDT 7:18 PM AKDT
Civil Twilight 7:31 AM AKDT 7:59 PM AKDT
Nautical Twilight 6:42 AM AKDT 8:48 PM AKDT
Astronomical Twilight 5:51 AM AKDT 9:38 PM AKDT
Moon 5:22 PM AKDT (10/5) 12:37 AM AKDT (10/5)
Length of Visible Light 12h 28m
Length of Day
11h 05m
Waxing Gibbous, 67% of the Moon is Illuminated
Oct 5
Waxing Gibbous
Oct 11
Full
Oct 19
Last Quarter
Oct 26
New
Nov 2
First Quarter

Hourly Weather History & Observations

Time (AKDT) Temp. Windchill Dew Point Humidity Pressure Visibility Wind Dir Wind Speed Gust Speed Precip Events Conditions
12:53 AM 39.9 °F 32.9 °F 30.9 °F 70% 29.56 in 10.0 mi North 11.5 mph - N/A   Clear
1:53 AM 39.0 °F 31.8 °F 30.0 °F 70% 29.57 in 10.0 mi North 11.5 mph - N/A   Clear
2:53 AM 36.0 °F 30.3 °F 30.0 °F 79% 29.57 in 10.0 mi NNW 6.9 mph - N/A   Clear
3:53 AM 34.0 °F 28.8 °F 28.9 °F 82% 29.57 in 10.0 mi NNW 5.8 mph - N/A   Clear
4:53 AM 32.0 °F 26.4 °F 28.0 °F 85% 29.57 in 10.0 mi NNW 5.8 mph - N/A   Clear
5:53 AM 32.0 °F 25.6 °F 28.0 °F 85% 29.57 in 10.0 mi NNW 6.9 mph - N/A   Clear
6:53 AM 30.9 °F 26.2 °F 27.0 °F 85% 29.57 in 10.0 mi North 4.6 mph - N/A   Clear
7:53 AM 30.9 °F 27.5 °F 28.0 °F 89% 29.57 in 10.0 mi North 3.5 mph - N/A   Mostly Cloudy
8:53 AM 33.1 °F 30.0 °F 28.9 °F 85% 29.56 in 10.0 mi NNW 3.5 mph - N/A   Mostly Cloudy
9:53 AM 37.0 °F - 32.0 °F 82% 29.55 in 10.0 mi Calm Calm - N/A   Overcast
10:53 AM 39.9 °F - 34.0 °F 79% 29.54 in 5.0 mi Calm Calm - N/A   Haze
11:53 AM 43.0 °F - 34.0 °F 71% 29.54 in 10.0 mi Calm Calm - N/A   Mostly Cloudy
12:53 PM 44.1 °F - 37.0 °F 76% 29.53 in 10.0 mi Calm Calm - 0.00 in Rain Light Rain
1:53 PM 46.9 °F - 37.9 °F 71% 29.51 in 10.0 mi SSW 12.7 mph 19.6 mph 0.00 in Rain Light Rain
2:53 PM 45.0 °F 38.9 °F 39.0 °F 80% 29.49 in 10.0 mi SSW 12.7 mph - 0.03 in Rain Light Rain
3:15 PM 42.8 °F 35.1 °F 37.4 °F 81% 29.50 in 2.5 mi SW 16.1 mph 31.1 mph 0.05 in Rain Rain
3:29 PM 44.6 °F 37.8 °F 37.4 °F 76% 29.50 in 4.0 mi South 15.0 mph 24.2 mph 0.09 in Rain Light Rain
3:53 PM 45.0 °F 38.9 °F 39.0 °F 80% 29.48 in 10.0 mi SW 12.7 mph - 0.10 in Rain Light Rain
4:53 PM 46.0 °F 41.4 °F 37.9 °F 73% 29.46 in 10.0 mi SSW 9.2 mph - 0.00 in Rain Light Rain
5:53 PM 45.0 °F 40.6 °F 39.0 °F 80% 29.44 in 6.0 mi SSW 8.1 mph - 0.04 in Rain Rain
6:53 PM 46.0 °F 40.6 °F 37.9 °F 73% 29.43 in 10.0 mi SSW 11.5 mph - 0.01 in Rain Light Rain
7:53 PM 44.1 °F 42.5 °F 37.0 °F 76% 29.41 in 10.0 mi WSW 3.5 mph - 0.03 in Rain Light Rain
8:53 PM 43.0 °F - 39.9 °F 89% 29.39 in 9.0 mi Calm Calm - 0.03 in Rain Light Rain
9:53 PM 42.1 °F - 39.0 °F 89% 29.37 in 10.0 mi Calm Calm - 0.02 in Rain Light Rain
10:51 PM 42.8 °F - 39.2 °F 87% 29.36 in 4.0 mi Calm Calm - 0.07 in Rain Light Rain
10:53 PM 42.1 °F - 39.0 °F 89% 29.37 in 4.0 mi Calm Calm - 0.07 in Rain Light Rain
11:09 PM 41.0 °F - 39.2 °F 93% 29.35 in 8.0 mi Calm Calm - 0.01 in Rain Light Rain
11:53 PM 41.0 °F 38.0 °F 39.0 °F 93% 29.35 in 3.0 mi WNW 4.6 mph - 0.09 in Rain Rain